Location: Unspecified
(0.0000°N, 0.0000°E)
Time: 19:26:56
(UTC+00:00)

Explorer 11/Cluster Stage 4 - Pass Details

Date: 25 November 2019
Orbit: 467 x 1259 km, 28.8° (Epoch: 09 December)

Event Time Altitude Azimuth Distance (km) Brightness Sun altitude
Rises 22:24:52 0° 327° (NNW) 3,459 - -61.1°
Reaches altitude 10° 22:27:56 10° 342° (NNW) 2,665 - -61.6°
Maximum altitude 22:32:50 22° 31° (NNE) 2,142 - -62.4°
Drops below altitude 10° 22:38:21 10° 77° (ENE) 3,058 - -63.2°
Sets 22:42:09 0° 92° (E) 4,114 - -63.8°
